[[{"header":{"parameterUnit":"m.s-1","parameterCategory":1,"la1":30.2991,"la2":30.254,"lo1":-89.0895,"lo2":-89.0444,"dy":0.0017,"dx":0.0017,"nx":28,"ny":28,"refTime":"2025-02-02T09:00:00:Z","depth":0,"parameterNumber":2,"parameterNumberName":"U-component_of_WINDS"},"data":[0,0,0,0,0,0,0,0,0,0,0,0,0,0,0,0,0,0,0,0,0,0,0,0,0,0,0,0,0,0,0,0,0,0,0,0,0,0,0,0,0,0,0,0,0,0,0,0,0,0,0,0,0,0,0,0,0,0,-0.0505,-0.0505,0,-0.0483,-0.0483,-0.0483,-0.0477,-0.0477,-0.0477,-0.0477,-0.0456,-0.0455,-0.0454,0,0,0,0,0,0,0,0,0,0,0,0,0,-0.0544,-0.0543,-0.0505,-0.0505,-0.0505,-0.0483,-0.0483,-0.0483,-0.0476,-0.0477,-0.0477,-0.0477,-0.0456,-0.0455,-0.0454,0,0,0,0,0,0,0,0,0,0,0,0,0,-0.0525,-0.0543,-0.0505,-0.0499,-0.0498,-0.0483,-0.0483,-0.0483,-0.0476,-0.0477,-0.0477,-0.0477,-0.0456,-0.0455,-0.0454,-0.0444,0,0,-0.0451,-0.0451,0,0,0,0,0,0,0,0,-0.0526,-0.0524,-0.05,-0.0499,-0.0498,-0.0483,-0.0489,-0.047,-0.0476,-0.0485,-0.0477,-0.0477,-0.0465,-0.0463,-0.0458,-0.0443,-0.0443,-0.0451,-0.045,-0.045,-0.045,0,0,0,0,0,0,0,-0.0527,-0.0524,-0.0497,-0.05,-0.0499,-0.0498,-0.0495,-0.0485,-0.0474,-0.0484,-0.0484,-0.0481,-0.0464,-0.0459,-0.0458,-0.0442,-0.0451,-0.045,-0.045,-0.0449,-0.0418,-0.0418,0,0,0,0,0,0,-0.0529,-0.0526,-0.0497,-0.0496,-0.0513,-0.0497,-0.0494,-0.0488,-0.0474,-0.0472,-0.0481,-0.0481,-0.0461,-0.0459,-0.0457,-0.0445,-0.045,-0.0449,-0.0448,-0.0419,-0.0418,-0.0418,0,0,0,0,0,0,-0.053,-0.0527,-0.0498,-0.0511,-0.0507,-0.0496,-0.0489,-0.0487,-0.0482,-0.0472,-0.047,-0.0478,-0.0461,-0.0459,-0.0448,-0.0444,-0.0449,-0.0448,-0.0419,-0.0418,-0.0418,-0.042,0,0,0,0,0,0,-0.0531,-0.0527,-0.0523,-0.051,-0.0506,-0.0488,-0.0489,-0.0487,-0.048,-0.048,-0.0468,-0.0467,-0.0461,-0.0449,-0.0447,-0.0443,-0.0447,-0.0419,-0.0419,-0.0418,-0.042,-0.042,-0.0419,0,0,0,0,0,-0.0533,-0.0525,-0.0523,-0.0519,-0.05,-0.0488,-0.0486,-0.0479,-0.048,-0.0476,-0.0469,-0.0467,-0.0445,-0.0448,-0.0445,-0.0441,-0.0419,-0.0419,-0.0418,-0.042,-0.042,-0.0419,0,0,0,0,0,0,-0.0538,-0.0523,-0.0521,-0.0508,-0.0499,-0.0487,-0.0482,-0.0479,-0.047,-0.047,-0.0463,-0.046,-0.045,-0.0444,-0.0448,-0.0431,-0.0432,-0.0431,-0.0435,-0.0434,-0.0434,-0.0435,-0.0446,0,0,0,0,0,-0.0537,-0.0528,-0.0516,-0.0506,-0.0502,-0.0492,-0.0487,-0.0482,-0.0473,-0.047,-0.0462,-0.0454,-0.0445,-0.0439,-0.0431,-0.042,-0.0417,-0.0415,-0.0415,-0.0415,-0.0414,-0.0408,-0.0407,-0.0416,-0.0416,-0.0416,0,0,-0.0536,-0.0527,-0.0522,-0.0507,-0.0499,-0.049,-0.0489,-0.048,-0.0473,-0.0468,-0.0457,-0.0452,-0.0442,-0.0431,-0.0426,-0.0426,-0.0411,-0.0414,-0.0414,-0.0413,-0.0407,-0.0406,-0.0405,-0.0416,-0.0416,-0.0416,0,0,-0.053,-0.0522,-0.0513,-0.0505,-0.0494,-0.0488,-0.0486,-0.0474,-0.047,-0.0459,-0.0455,-0.0448,-0.0432,-0.0426,-0.042,-0.0412,-0.0409,-0.0409,-0.0407,-0.0401,-0.04,-0.04,-0.0397,-0.0396,-0.0408,-0.0408,-0.0408,0,-0.053,-0.0516,-0.0509,-0.0499,-0.0493,-0.0488,-0.0479,-0.0472,-0.0459,-0.0455,-0.0456,-0.0437,-0.043,-0.0417,-0.0415,-0.0411,-0.0408,-0.041,-0.0401,-0.04,-0.0399,-0.0397,-0.0395,-0.0408,-0.0408,-0.0408,-0.0408,0,-0.0517,-0.0507,-0.0501,-0.0488,-0.0481,-0.0472,-0.0464,-0.0458,-0.0454,-0.0449,-0.0437,-0.0429,-0.0419,-0.0415,-0.0412,-0.0402,-0.0403,-0.0402,-0.0403,-0.0399,-0.0396,-0.0395,-0.0408,-0.0408,-0.0408,-0.0408,0,0,-0.0513,-0.0495,-0.0493,-0.0487,-0.0475,-0.0467,-0.0459,-0.0448,-0.0443,-0.0434,-0.0427,-0.0414,-0.0413,-0.0407,-0.0403,-0.0398,-0.0392,-0.0398,-0.0398,-0.0397,-0.0381,-0.0382,-0.038,-0.0391,-0.039,-0.039,-0.0382,0,-0.0505,-0.0487,-0.0481,-0.0467,-0.0458,-0.0453,-0.0446,-0.0437,-0.0432,-0.0424,-0.0418,-0.0409,-0.0409,-0.0405,-0.04,-0.0394,-0.0389,-0.0395,-0.0384,-0.0384,-0.0386,-0.0379,-0.0379,-0.0372,-0.0381,-0.0381,-0.0381,0,-0.0493,-0.0483,-0.0468,-0.0457,-0.0453,-0.0446,-0.0436,-0.0428,-0.0419,-0.0416,-0.0409,-0.0405,-0.0396,-0.0398,-0.0386,-0.039,-0.0385,-0.0381,-0.0381,-0.038,-0.0382,-0.0377,-0.0369,-0.0368,-0.0379,-0.0379,-0.0379,0,-0.0491,-0.0475,-0.0464,-0.0459,-0.0445,-0.044,-0.0435,-0.0426,-0.042,-0.0411,-0.0407,-0.0398,-0.0393,-0.0386,-0.038,-0.0382,-0.0368,-0.037,-0.0366,-0.0366,-0.0363,-0.0363,-0.0354,-0.036,-0.036,-0.036,-0.036,0,-0.0483,-0.0474,-0.0463,-0.0456,-0.0446,-0.0439,-0.043,-0.0424,-0.0416,-0.0408,-0.0404,-0.0397,-0.039,-0.0382,-0.0378,-0.0368,-0.0366,-0.0363,-0.0362,-0.0363,-0.0364,-0.036,-0.036,-0.036,-0.036,-0.036,-0.036,0,-0.0479,-0.0471,-0.0459,-0.0447,-0.0444,-0.0437,-0.0427,-0.0421,-0.0415,-0.0406,-0.0403,-0.0395,-0.0385,-0.0379,-0.0367,-0.0364,-0.0354,-0.0353,-0.0357,-0.0356,-0.0352,-0.0353,-0.0341,-0.0339,-0.0346,-0.0346,-0.0346,0,-0.0474,-0.0467,-0.0454,-0.0449,-0.0443,-0.0434,-0.0428,-0.0421,-0.0414,-0.0404,-0.0399,-0.0389,-0.0381,-0.0367,-0.036,-0.0351,-0.035,-0.0346,-0.0348,-0.035,-0.035,-0.035,-0.0349,-0.0346,-0.0346,-0.0346,-0.0345,0,-0.0466,-0.0462,-0.0453,-0.0443,-0.0436,-0.0427,-0.0419,-0.0415,-0.0407,-0.04,-0.039,-0.0384,-0.0372,-0.0363,-0.0353,-0.0348,-0.0346,-0.0345,-0.0343,-0.0345,-0.0347,-0.0346,-0.0356,-0.0345,-0.0345,-0.0345,-0.0345,-0.0345,-0.0461,-0.0455,-0.0445,-0.0435,-0.0428,-0.042,-0.0414,-0.0407,-0.0399,-0.0388,-0.0385,-0.0375,-0.0366,-0.0353,-0.0348,-0.034,-0.0341,-0.0339,-0.0338,-0.0338,-0.0338,-0.0349,-0.0339,-0.0339,-0.0339,-0.0339,-0.0339,0,-0.0453,-0.0447,-0.0438,-0.0426,-0.0418,-0.0416,-0.0407,-0.0401,-0.0392,-0.0384,-0.0376,-0.0365,-0.0356,-0.0348,-0.0339,-0.0335,-0.0333,-0.0333,-0.0333,-0.0332,-0.0338,-0.034,-0.0334,-0.0334,-0.0334,-0.0334,-0.0334,-0.0334,-0.0448,-0.0437,-0.0432,-0.0418,-0.0412,-0.0401,-0.0396,-0.039,-0.0383,-0.0371,-0.0363,-0.0358,-0.0351,-0.0341,-0.0333,-0.0331,-0.0328,-0.0327,-0.0325,-0.0331,-0.0331,-0.0332,-0.0334,-0.0327,-0.0327,-0.0319,-0.0319,-0.0319]},{"header":{"parameterUnit":"m.s-1","parameterCategory":1,"la1":30.2991,"la2":30.254,"lo1":-89.0895,"lo2":-89.0444,"dy":0.0017,"dx":0.0017,"nx":28,"ny":28,"refTime":"2025-02-02T09:00:00:Z","depth":0,"parameterNumber":3,"parameterNumberName":"V-component_of_WINDS"},"data":[0,0,0,0,0,0,0,0,0,0,0,0,0,0,0,0,0,0,0,0,0,0,0,0,0,0,0,0,0,0,0,0,0,0,0,0,0,0,0,0,0,0,0,0,0,0,0,0,0,0,0,0,0,0,0,0,0,0,1.1603,1.1602,0,1.1569,1.1568,1.1568,1.1527,1.1526,1.1526,1.1525,1.1488,1.1488,1.1488,0,0,0,0,0,0,0,0,0,0,0,0,0,1.1631,1.1631,1.1603,1.1602,1.1602,1.1569,1.1568,1.1568,1.1527,1.1526,1.1525,1.1525,1.1489,1.1488,1.1488,0,0,0,0,0,0,0,0,0,0,0,0,0,1.161,1.1631,1.1603,1.1578,1.1575,1.1569,1.1568,1.1568,1.1527,1.1526,1.1525,1.1524,1.1489,1.1488,1.1488,1.1503,0,0,1.1486,1.1486,0,0,0,0,0,0,0,0,1.1611,1.1609,1.1582,1.1579,1.1576,1.1551,1.1565,1.1546,1.1527,1.1545,1.1525,1.1524,1.151,1.1508,1.1503,1.1501,1.15,1.1486,1.1485,1.1485,1.1485,0,0,0,0,0,0,0,1.1613,1.161,1.1589,1.1581,1.1578,1.1567,1.1563,1.1561,1.1533,1.1544,1.1541,1.1537,1.1508,1.1504,1.1502,1.1499,1.1486,1.1485,1.1485,1.1485,1.1508,1.1509,0,0,0,0,0,0,1.1618,1.1612,1.159,1.1588,1.1592,1.1568,1.1563,1.156,1.1533,1.1528,1.1538,1.1535,1.1505,1.1503,1.1501,1.1517,1.1485,1.1485,1.1484,1.1507,1.1508,1.1509,0,0,0,0,0,0,1.1619,1.1617,1.1592,1.1599,1.1595,1.1568,1.1565,1.156,1.1556,1.1529,1.1524,1.1539,1.1504,1.1501,1.1503,1.1515,1.1484,1.1484,1.1506,1.1507,1.1509,1.155,0,0,0,0,0,0,1.162,1.1617,1.1623,1.16,1.1595,1.1595,1.1566,1.156,1.1555,1.1551,1.1528,1.1524,1.1503,1.1504,1.1502,1.1514,1.1483,1.1505,1.1506,1.1508,1.1548,1.1553,1.1557,0,0,0,0,0,1.1621,1.1636,1.1624,1.1622,1.1602,1.1596,1.1593,1.157,1.1556,1.1562,1.1544,1.1524,1.1514,1.1504,1.1502,1.1514,1.1504,1.1506,1.1508,1.1545,1.1552,1.1557,0,0,0,0,0,0,1.1662,1.1633,1.1619,1.1626,1.1614,1.1589,1.1596,1.1578,1.1569,1.1566,1.1537,1.1532,1.1537,1.1525,1.1515,1.1527,1.1506,1.1508,1.1535,1.1541,1.1546,1.1549,1.1483,0,0,0,0,0,1.1672,1.167,1.1644,1.1653,1.1648,1.1623,1.1619,1.1603,1.1589,1.1583,1.1566,1.1553,1.1546,1.1543,1.1535,1.1545,1.154,1.1552,1.1557,1.1561,1.1563,1.1568,1.1573,1.1516,1.1516,1.1516,0,0,1.1692,1.1676,1.1676,1.1661,1.1649,1.1648,1.1619,1.1618,1.1616,1.1583,1.1583,1.157,1.1553,1.1559,1.1561,1.1549,1.1578,1.1564,1.1567,1.1567,1.1571,1.1576,1.1581,1.1518,1.1517,1.1517,0,0,1.1728,1.1716,1.1722,1.1711,1.1694,1.1677,1.1679,1.1657,1.1647,1.1647,1.1622,1.1619,1.1609,1.1598,1.1591,1.1622,1.1603,1.1621,1.1647,1.1651,1.1656,1.166,1.1671,1.1676,1.1623,1.1623,1.1623,0,1.1756,1.1753,1.1728,1.1729,1.1723,1.1692,1.1699,1.1689,1.167,1.1667,1.1654,1.1641,1.1627,1.163,1.1638,1.1633,1.1634,1.1624,1.1657,1.1661,1.1664,1.1675,1.1679,1.1625,1.1625,1.1624,1.1624,0,1.1787,1.1785,1.1792,1.1776,1.177,1.1774,1.1749,1.1747,1.173,1.1715,1.1715,1.1698,1.1686,1.1685,1.1669,1.1686,1.168,1.1662,1.1641,1.1672,1.1682,1.1686,1.1628,1.1627,1.1627,1.1626,0,0,1.1849,1.1818,1.1822,1.1814,1.1792,1.179,1.1792,1.1781,1.178,1.1768,1.1769,1.176,1.1744,1.1736,1.1718,1.1723,1.1749,1.1705,1.1704,1.1714,1.1767,1.1781,1.1786,1.1736,1.1737,1.1737,1.1769,0,1.1882,1.1885,1.1862,1.187,1.1868,1.1839,1.184,1.1827,1.1813,1.1808,1.1791,1.1786,1.1765,1.176,1.1763,1.1746,1.176,1.1743,1.1737,1.1737,1.1743,1.1791,1.1805,1.1836,1.1772,1.1773,1.1773,0,1.1921,1.1912,1.1921,1.1899,1.1897,1.1899,1.1887,1.1884,1.1868,1.1857,1.1848,1.1827,1.1827,1.1806,1.1805,1.1794,1.179,1.1781,1.1781,1.1781,1.1758,1.1792,1.1845,1.185,1.1779,1.1778,1.1778,0,1.1967,1.1956,1.196,1.1954,1.1928,1.193,1.192,1.1903,1.1898,1.1887,1.1884,1.1873,1.1867,1.1859,1.1836,1.1823,1.1838,1.1815,1.1829,1.183,1.1834,1.1835,1.1888,1.183,1.183,1.183,1.183,0,1.2007,1.2013,1.198,1.1982,1.1988,1.1962,1.1968,1.1954,1.194,1.1939,1.1912,1.1911,1.188,1.1876,1.1858,1.186,1.1857,1.1848,1.1843,1.1851,1.1852,1.1849,1.1846,1.1831,1.1831,1.1831,1.1831,0,1.2059,1.2037,1.2039,1.2014,1.2008,1.2014,1.1993,1.1994,1.1977,1.1976,1.1974,1.1948,1.1941,1.1917,1.1904,1.1892,1.19,1.189,1.1906,1.1903,1.1919,1.1918,1.1973,1.1979,1.1917,1.1917,1.1918,0,1.2086,1.2091,1.2067,1.2064,1.2055,1.2051,1.2046,1.202,1.2015,1.1997,1.2,1.1992,1.1984,1.1974,1.1954,1.1944,1.1934,1.1954,1.1932,1.194,1.1935,1.1936,1.1936,1.1959,1.196,1.196,1.1961,0,1.2138,1.2127,1.212,1.2111,1.2105,1.2096,1.2085,1.2084,1.2055,1.2051,1.2044,1.2038,1.2025,1.2017,1.2004,1.1992,1.1972,1.1968,1.1971,1.1979,1.1988,1.1984,1.192,1.1967,1.1966,1.1966,1.1965,1.1965,1.2179,1.2182,1.2165,1.2159,1.2148,1.2139,1.2138,1.2122,1.2116,1.2104,1.2088,1.2083,1.2067,1.2047,1.2036,1.2032,1.2021,1.2025,1.2026,1.2028,1.2032,1.1988,1.2029,1.2029,1.2029,1.2029,1.2028,0,1.223,1.2218,1.2212,1.2198,1.2193,1.2175,1.2161,1.2159,1.2155,1.2141,1.2134,1.2126,1.2118,1.2096,1.2086,1.2086,1.2077,1.2085,1.2085,1.2082,1.2042,1.2041,1.2093,1.2093,1.2093,1.2092,1.2092,1.2092,1.2256,1.2259,1.2246,1.2243,1.2231,1.2227,1.2221,1.2212,1.2201,1.2193,1.2187,1.2173,1.2156,1.2144,1.2135,1.2129,1.2126,1.2138,1.2128,1.2091,1.2085,1.2079,1.2078,1.2137,1.2137,1.2169,1.217,1.217]}]]